INNOSAT 16 (RS92S7)

Last updated on Mon Feb 16 2026 00:03:11 GMT+0000 (Coordinated Universal Time)

1 64878U 25155C 26046.52365938 .00009296 00000+0 38842-3 0 9993 2 64878 97.4419 14.2841 0008707 250.9702 109.0592 15.23808614 62132
UTC large
Height (km)
Speed (km/s)
/
Latitude / Longitude
Inclination (degrees)
Orbital Period (minutes)
Azimuth
Elevation
Range (km)
Doppler Factor

Next 0 passes for location: London (51.5072 / 0.1276)

Sorry there are no passes over London.